TimeCST,TemperatureF,Dew PointF,Humidity,Sea Level PressureIn,VisibilityMPH,Wind Direction,Wind SpeedMPH,Gust SpeedMPH,PrecipitationIn,Events,Conditions,WindDirDegrees,DateUTC
12:15 AM,30.2,28.4,93,30.24,10.0,NW,6.9,-,N/A,,Clear,320,2012-11-12 06:15:00
12:35 AM,30.2,26.6,86,30.25,10.0,NNW,8.1,-,N/A,,Clear,330,2012-11-12 06:35:00
12:55 AM,30.2,24.8,80,30.25,10.0,NW,6.9,-,N/A,,Clear,320,2012-11-12 06:55:00
1:35 AM,30.2,24.8,80,30.27,10.0,NW,4.6,-,N/A,,Clear,320,2012-11-12 07:35:00
1:55 AM,30.2,24.8,80,30.28,10.0,NW,3.5,-,N/A,,Clear,310,2012-11-12 07:55:00
2:15 AM,28.4,24.8,86,30.28,10.0,NW,3.5,-,N/A,,Clear,320,2012-11-12 08:15:00
2:35 AM,28.4,24.8,86,30.29,10.0,NW,3.5,-,N/A,,Clear,310,2012-11-12 08:35:00
2:55 AM,28.4,23.0,80,30.29,10.0,NW,3.5,-,N/A,,Clear,310,2012-11-12 08:55:00
3:15 AM,28.4,24.8,86,30.29,10.0,Calm,Calm,-,N/A,,Clear,0,2012-11-12 09:15:00
3:55 AM,28.4,23.0,80,30.31,10.0,WNW,3.5,-,N/A,,Clear,300,2012-11-12 09:55:00
4:15 AM,28.4,23.0,80,30.32,10.0,WNW,3.5,-,N/A,,Clear,300,2012-11-12 10:15:00
4:35 AM,26.6,23.0,86,30.32,10.0,West,3.5,-,N/A,,Clear,280,2012-11-12 10:35:00
4:55 AM,26.6,23.0,86,30.33,10.0,Calm,Calm,-,N/A,,Clear,0,2012-11-12 10:55:00
5:15 AM,26.6,23.0,86,30.34,10.0,Calm,Calm,-,N/A,,Clear,0,2012-11-12 11:15:00
5:35 AM,26.6,23.0,86,30.34,10.0,Calm,Calm,-,N/A,,Clear,0,2012-11-12 11:35:00
5:55 AM,26.6,23.0,86,30.35,10.0,WSW,3.5,-,N/A,,Clear,250,2012-11-12 11:55:00
6:55 AM,24.8,23.0,93,30.38,10.0,WSW,3.5,-,N/A,,Clear,240,2012-11-12 12:55:00
7:15 AM,24.8,23.0,93,30.38,10.0,Calm,Calm,-,N/A,,Clear,0,2012-11-12 13:15:00
7:35 AM,26.6,23.0,86,30.38,10.0,Calm,Calm,-,N/A,,Clear,0,2012-11-12 13:35:00
7:55 AM,26.6,23.0,86,30.37,10.0,South,3.5,-,N/A,,Clear,180,2012-11-12 13:55:00
8:15 AM,28.4,24.8,86,30.39,10.0,SW,4.6,-,N/A,,Clear,220,2012-11-12 14:15:00
8:35 AM,30.2,24.8,80,30.40,10.0,SW,3.5,-,N/A,,Clear,230,2012-11-12 14:35:00
8:55 AM,32.0,23.0,69,30.41,10.0,SW,4.6,-,N/A,,Clear,230,2012-11-12 14:55:00
9:15 AM,32.0,26.6,80,30.41,10.0,SSW,4.6,-,N/A,,Clear,210,2012-11-12 15:15:00
9:35 AM,33.8,24.8,70,30.41,10.0,SSW,5.8,-,N/A,,Clear,200,2012-11-12 15:35:00
9:55 AM,35.6,23.0,60,30.42,10.0,SW,6.9,-,N/A,,Clear,230,2012-11-12 15:55:00
10:15 AM,35.6,23.0,60,30.42,10.0,WSW,8.1,-,N/A,,Clear,240,2012-11-12 16:15:00
10:35 AM,37.4,23.0,56,30.42,10.0,WSW,10.4,-,N/A,,Clear,240,2012-11-12 16:35:00
10:55 AM,39.2,24.8,56,30.42,10.0,West,10.4,-,N/A,,Clear,260,2012-11-12 16:55:00
11:15 AM,39.2,23.0,52,30.42,10.0,West,6.9,-,N/A,,Clear,270,2012-11-12 17:15:00
11:35 AM,41.0,21.2,45,30.41,10.0,WSW,9.2,-,N/A,,Clear,250,2012-11-12 17:35:00
11:55 AM,41.0,23.0,49,30.40,10.0,WSW,6.9,-,N/A,,Clear,250,2012-11-12 17:55:00
12:15 PM,42.8,23.0,46,30.40,10.0,West,11.5,16.1,N/A,,Clear,260,2012-11-12 18:15:00
12:35 PM,42.8,23.0,46,30.40,10.0,WSW,10.4,-,N/A,,Clear,240,2012-11-12 18:35:00
12:55 PM,44.6,23.0,43,30.39,10.0,West,10.4,16.1,N/A,,Clear,260,2012-11-12 18:55:00
1:15 PM,44.6,24.8,46,30.39,10.0,West,12.7,-,N/A,,Clear,270,2012-11-12 19:15:00
1:35 PM,44.6,23.0,43,30.39,10.0,West,12.7,18.4,N/A,,Clear,260,2012-11-12 19:35:00
1:55 PM,44.6,23.0,43,30.39,10.0,WSW,12.7,-,N/A,,Clear,250,2012-11-12 19:55:00
2:55 PM,44.6,26.6,49,30.39,10.0,West,15.0,-,N/A,,Clear,270,2012-11-12 20:55:00
3:15 PM,44.6,24.8,46,30.39,10.0,West,12.7,21.9,N/A,,Clear,260,2012-11-12 21:15:00
3:35 PM,44.6,26.6,49,30.39,10.0,WSW,12.7,17.3,N/A,,Clear,250,2012-11-12 21:35:00
3:55 PM,44.6,24.8,46,30.40,10.0,West,12.7,-,N/A,,Clear,270,2012-11-12 21:55:00
4:15 PM,44.6,24.8,46,30.40,10.0,West,11.5,-,N/A,,Clear,260,2012-11-12 22:15:00
4:35 PM,42.8,24.8,49,30.40,10.0,West,8.1,-,N/A,,Clear,270,2012-11-12 22:35:00
4:55 PM,42.8,26.6,53,30.40,10.0,West,5.8,-,N/A,,Clear,260,2012-11-12 22:55:00
5:15 PM,41.0,26.6,57,30.40,10.0,WSW,4.6,-,N/A,,Clear,250,2012-11-12 23:15:00
5:35 PM,41.0,26.6,57,30.40,10.0,SW,4.6,-,N/A,,Clear,230,2012-11-12 23:35:00
5:55 PM,37.4,26.6,65,30.41,10.0,SW,4.6,-,N/A,,Clear,220,2012-11-12 23:55:00
6:15 PM,37.4,26.6,65,30.41,10.0,SW,4.6,-,N/A,,Clear,220,2012-11-13 00:15:00
6:35 PM,37.4,26.6,65,30.41,10.0,South,4.6,-,N/A,,Clear,190,2012-11-13 00:35:00
6:55 PM,37.4,26.6,65,30.42,10.0,SSW,4.6,-,N/A,,Clear,210,2012-11-13 00:55:00
7:35 PM,35.6,26.6,70,30.42,10.0,SW,3.5,-,N/A,,Clear,230,2012-11-13 01:35:00
7:55 PM,35.6,26.6,70,30.43,10.0,Calm,Calm,-,N/A,,Clear,0,2012-11-13 01:55:00
8:15 PM,35.6,26.6,70,30.43,10.0,Calm,Calm,-,N/A,,Clear,0,2012-11-13 02:15:00
8:35 PM,33.8,26.6,75,30.44,10.0,South,3.5,-,N/A,,Clear,190,2012-11-13 02:35:00
8:55 PM,33.8,26.6,75,30.44,10.0,South,3.5,-,N/A,,Clear,190,2012-11-13 02:55:00
9:15 PM,33.8,26.6,75,30.44,10.0,South,4.6,-,N/A,,Clear,180,2012-11-13 03:15:00
9:35 PM,33.8,26.6,75,30.44,10.0,South,4.6,-,N/A,,Clear,180,2012-11-13 03:35:00
9:55 PM,33.8,24.8,70,30.44,10.0,South,3.5,-,N/A,,Clear,170,2012-11-13 03:55:00
10:15 PM,32.0,26.6,80,30.45,10.0,South,4.6,-,N/A,,Clear,190,2012-11-13 04:15:00
10:35 PM,32.0,24.8,75,30.44,10.0,SSW,4.6,-,N/A,,Clear,200,2012-11-13 04:35:00
10:55 PM,32.0,24.8,75,30.45,10.0,South,4.6,-,N/A,,Clear,170,2012-11-13 04:55:00
11:15 PM,32.0,24.8,75,30.45,10.0,South,4.6,-,N/A,,Clear,180,2012-11-13 05:15:00
11:35 PM,32.0,24.8,75,30.45,10.0,South,4.6,-,N/A,,Clear,190,2012-11-13 05:35:00
11:55 PM,32.0,24.8,75,30.45,10.0,South,4.6,-,N/A,,Clear,190,2012-11-13 05:55:00